OICS

Sanandaj Airport

Airport
ICAO code
OICS
IATA Code
SDG
Summary
ICAO Region
MID
ICAO Territory
Location

Sanandaj, Kurdistan Province

Serving
Sanandaj
Elevation
4522 ft
Coordinates
35° 15' 6" N , 47° 0' 49" E
KCC
Metar
OICS 130300Z 00000KT CAVOK 01/M02 Q1018 A3006

Airport south of the city of Sanandaj, Iran.

Climatology

Warm Semi-arid climate (Köppen climate classification Bsh).

Runways

Designator Length Width Surface Rops
1/19 2640 45 ASP No/No

Airport map

Aerial View

SKYbrary Partners:

Safety knowledge contributed by: